Wetbulb
62.29 61.49 61.79 63.30 63.64 65.63 67.07 68.06 68.50 69.66 69.58 69.41 69.83 70.24 71.36 71.70 71.38 70.93 70.70 71.07 71.41 71.80 71.95 72.53 74.03 73.56 73.49 73.51 73.42 73.10 72.53 71.23 69.42
61.26 61.93 61.69 63.01 63.44 64.36 66.23 67.76 68.42 69.61 69.87 69.91 70.07 70.62 70.91 71.40 72.31 72.02 72.11 72.81 72.91 72.59 72.90 73.19 73.43 73.39 72.97 72.50 72.38 72.08 71.17 69.60 68.20
59.32 59.64 61.86 62.37 63.06 63.71 65.22 67.33 68.83 69.74 70.42 70.38 70.67 70.97 71.25 71.26 71.38 72.36 72.54 72.87 73.22 73.31 73.45 73.45 73.07 71.74 70.74 70.35 70.17 70.09 69.27 68.13 67.23
58.17 59.60 60.56 61.95 62.98 63.92 64.89 67.12 68.69 69.27 69.72 70.59 71.05 71.58 71.70 72.12 72.81 73.25 73.44 72.83 73.06 73.45 73.63 72.96 71.87 70.10 69.40 69.82 69.41 69.16 69.43 68.56 68.08
58.94 60.76 61.45 62.64 63.69 64.93 66.03 68.08 69.11 69.49 70.08 70.22 71.15 71.94 72.09 72.12 72.61 72.93 72.58 73.30 74.10 74.29 73.29 73.10 72.02 70.26 69.34 69.67 69.21 68.65 68.59 67.99 68.77
62.15 64.43 65.46 65.86 64.93 65.57 68.26 69.97 70.56 70.63 71.11 71.48 71.86 72.43 71.91 71.34 70.60 70.26 69.78 70.07 69.84 70.27 70.45 70.59 72.49 71.07 69.14 68.24 67.79 67.18 67.36 67.32 67.48
66.31 67.77 69.08 69.02 69.05 68.27 68.55 69.35 68.88 68.79 69.86 69.97 69.66 69.70 69.79 68.69 68.54 68.33 68.65 68.54 68.78 69.03 69.39 69.17 69.75 67.23 66.47 67.43 67.93 68.37 68.64 68.71 68.54
68.44 68.20 68.94 68.94 68.55 68.25 68.61 68.52 67.87 67.88 67.61 67.97 68.17 67.55 67.10 66.55 66.58 66.13 65.90 65.96 65.78 66.12 65.81 66.06 67.70 67.39 67.25 67.36 67.20 67.42 67.61 68.24 68.51
67.61 67.36 67.97 68.28 68.99 69.18 68.03 67.96 67.03 67.37 67.21 66.69 66.34 65.21 64.12 63.99 63.75 63.91 63.97 64.18 64.10 63.72 63.60 63.45 63.79 64.01 64.30 63.48 64.92 64.05 65.08 67.16 68.11
67.68 67.50 67.20 67.77 68.61 68.32 67.58 66.98 66.45 65.61 65.09 64.49 63.03 62.33 62.05 61.72 62.02 62.31 62.56 62.28 61.81 61.61 61.34 62.21 62.20 62.35 62.62 61.39 61.28 61.93 62.49 62.76 60.88
67.84 67.68 66.54 66.89 66.67 66.11 65.97 65.70 65.34 65.01 63.69 61.84 60.85 60.38 60.53 61.09 61.60 61.50 61.31 61.01 61.05 61.37 61.73 61.48 59.90 59.56 60.15 59.85 59.06 59.50 59.68 59.88 59.08
68.32 67.68 67.20 66.58 65.86 65.61 64.88 64.73 64.58 63.35 61.78 60.83 60.47 59.89 60.02 60.19 60.71 60.64 60.48 60.07 60.67 61.64 60.98 59.39 58.54 58.35 58.47 59.30 59.22 58.55 58.43 58.27 57.62
67.50 67.01 66.56 65.59 65.37 64.55 64.23 63.44 64.16 62.62 61.72 61.08 60.15 60.23 60.28 60.30 59.96 59.42 59.17 59.96 58.97 59.44 59.34 58.26 58.65 58.10 58.15 58.11 58.53 58.04 58.05 58.51 58.03
67.27 66.36 65.91 65.46 64.75 63.59 63.51 63.55 64.21 63.01 62.25 61.11 61.95 61.93 61.55 60.65 59.95 59.28 59.04 58.82 58.72 58.46 58.13 57.73 57.73 57.10 57.12 57.52 57.58 58.24 56.80 57.14 58.52
65.81 65.34 65.23 64.73 63.23 62.79 62.88 63.69 64.08 63.13 62.86 63.40 63.33 62.25 61.34 61.12 60.99 60.59 58.93 58.19 57.85 57.35 57.04 56.32 56.16 56.36 56.78 57.26 57.18 55.92 55.92 56.14 56.80
65.48 65.12 64.68 64.38 63.11 62.54 62.72 63.55 64.64 63.32 62.91 61.95 60.26 58.44 58.37 58.55 59.13 59.25 59.44 58.76 58.07 57.31 57.32 56.46 55.52 55.34 54.84 55.06 55.68 55.18 53.63 54.14 55.22
64.66 64.41 64.43 64.25 63.21 62.62 62.58 63.46 64.59 64.43 62.21 60.80 58.96 57.33 57.17 57.17 57.18 56.99 57.51 57.72 58.22 57.62 55.70 53.87 53.32 53.20 53.30 54.19 54.78 52.88 52.27 53.86 54.33
64.10 64.38 64.97 64.21 63.13 63.16 63.15 63.66 64.15 64.74 61.31 60.64 58.65 57.54 56.77 56.44 56.21 56.09 55.21 53.53 54.17 54.99 52.27 53.25 53.17 52.94 53.16 53.50 53.28 51.03 47.07 47.23 51.26
64.23 64.43 64.66 63.40 62.80 63.01 63.37 64.34 64.60 64.58 61.69 60.25 58.18 56.97 56.56 56.52 56.44 56.17 55.70 55.19 53.81 48.52 46.60 44.26 44.44 45.50 50.53 52.85 47.90 44.62 41.97 40.84 43.02
62.82 64.81 64.09 63.16 62.94 63.69 63.66 63.91 64.26 64.90 63.32 60.99 59.34 58.60 58.50 57.47 56.25 57.06 56.22 55.92 53.96 52.39 50.72 44.45 42.72 41.49 45.06 42.64 43.02 41.53 39.41 40.13 44.61
MSLP
1008.05 1008.54 1008.99 1009.40 1009.77 1010.35 1010.78 1011.44 1012.09 1012.65 1013.09 1013.47 1013.89 1014.31 1014.57 1014.84 1015.14 1015.42 1015.44 1015.42 1015.55 1015.45 1015.38 1015.13 1015.16 1015.26 1015.23 1015.23 1015.16 1015.13 1015.26 1015.65 1015.84
1007.70 1007.88 1008.45 1008.81 1009.31 1009.80 1010.31 1010.89 1011.39 1011.85 1012.34 1012.81 1013.21 1013.51 1013.94 1014.28 1014.58 1014.86 1015.03 1015.11 1015.15 1015.23 1015.10 1015.17 1015.18 1015.18 1015.13 1015.00 1014.73 1014.56 1014.53 1014.61 1015.10
1007.39 1007.74 1008.19 1008.84 1009.24 1009.62 1010.04 1010.35 1010.87 1011.47 1011.83 1012.14 1012.49 1013.13 1013.50 1013.86 1014.23 1014.60 1014.87 1014.99 1015.00 1014.84 1015.00 1014.99 1014.93 1014.97 1014.77 1014.70 1014.63 1014.65 1014.49 1014.66 1014.61
1007.41 1007.90 1008.37 1008.97 1009.33 1009.73 1010.21 1010.66 1011.08 1011.52 1011.97 1012.43 1012.81 1013.15 1013.66 1014.00 1014.16 1014.42 1014.57 1014.56 1014.38 1014.39 1014.54 1014.21 1014.34 1014.22 1014.39 1014.47 1014.44 1014.78 1015.08 1014.49 1014.77
1007.92 1008.50 1008.98 1009.34 1009.78 1010.27 1010.75 1011.27 1011.65 1012.07 1012.38 1012.70 1012.95 1013.20 1013.53 1013.61 1013.80 1014.03 1014.17 1014.22 1014.28 1014.30 1014.09 1014.05 1014.16 1014.40 1014.55 1014.68 1014.49 1014.71 1014.71 1014.68 1014.83
1008.75 1009.37 1009.75 1010.16 1010.68 1011.21 1011.58 1011.88 1012.20 1012.53 1012.73 1012.83 1012.91 1013.21 1013.59 1013.97 1014.18 1014.50 1014.84 1014.50 1014.46 1014.53 1014.44 1014.46 1014.42 1014.59 1014.70 1014.65 1014.51 1014.53 1014.65 1014.76 1014.86
1009.38 1010.13 1010.45 1010.90 1011.42 1012.03 1012.42 1012.66 1012.91 1013.11 1013.20 1013.36 1013.53 1013.73 1014.13 1014.41 1014.70 1014.96 1015.16 1015.14 1015.05 1014.99 1014.89 1014.81 1014.76 1014.91 1015.00 1014.90 1014.80 1014.69 1014.64 1014.76 1014.85
1009.99 1010.72 1011.12 1011.58 1011.94 1012.47 1013.04 1013.34 1013.58 1013.81 1013.98 1014.15 1014.24 1014.45 1014.86 1015.28 1015.53 1015.68 1015.73 1015.79 1015.77 1015.64 1015.53 1015.56 1015.50 1015.37 1015.28 1015.28 1015.28 1015.31 1015.21 1015.05 1014.94
1010.38 1011.01 1011.56 1011.99 1012.35 1012.89 1013.49 1013.93 1014.22 1014.49 1014.74 1014.90 1014.98 1015.37 1015.80 1016.16 1016.36 1016.38 1016.40 1016.44 1016.42 1016.34 1016.30 1016.28 1016.16 1016.05 1016.04 1016.00 1015.95 1015.72 1015.31 1015.10 1014.71
1010.28 1011.02 1011.81 1012.29 1012.69 1013.26 1013.85 1014.39 1014.74 1015.18 1015.53 1015.65 1015.87 1016.29 1016.76 1017.03 1017.13 1017.13 1017.26 1017.34 1017.27 1017.24 1017.17 1017.03 1016.91 1016.88 1016.78 1016.79 1016.61 1016.21 1015.81 1015.51 1015.50
1010.25 1011.06 1012.02 1012.51 1013.02 1013.71 1014.43 1014.96 1015.43 1015.86 1016.16 1016.41 1016.71 1017.04 1017.29 1017.60 1017.73 1017.90 1018.06 1018.04 1017.98 1017.94 1017.89 1017.91 1018.02 1017.95 1017.80 1017.58 1017.43 1017.05 1016.72 1016.47 1016.49
1010.23 1011.13 1012.06 1012.77 1013.40 1014.03 1014.78 1015.34 1015.83 1016.20 1016.73 1017.04 1017.31 1017.70 1017.92 1018.19 1018.33 1018.44 1018.51 1018.58 1018.57 1018.58 1018.67 1018.70 1018.69 1018.66 1018.57 1018.41 1018.36 1018.02 1017.70 1017.44 1017.36
1010.91 1011.63 1012.27 1012.96 1013.79 1014.39 1015.04 1015.74 1016.11 1016.65 1017.25 1017.60 1017.98 1018.21 1018.43 1018.62 1018.80 1018.94 1019.06 1019.15 1019.31 1019.40 1019.44 1019.57 1019.50 1019.41 1019.35 1019.28 1019.09 1018.83 1018.45 1018.21 1018.01
1011.06 1011.88 1012.72 1013.44 1014.11 1014.62 1015.32 1015.84 1016.33 1017.00 1017.54 1017.94 1018.23 1018.53 1018.78 1019.03 1019.23 1019.32 1019.43 1019.53 1019.57 1019.64 1019.70 1019.84 1019.82 1019.82 1019.89 1019.81 1019.68 1019.50 1019.12 1018.83 1018.64
1011.27 1012.17 1013.23 1013.97 1014.42 1015.09 1015.71 1016.04 1016.39 1017.05 1017.56 1017.92 1018.24 1018.58 1018.95 1019.29 1019.44 1019.54 1019.74 1019.76 1019.94 1020.02 1019.96 1019.91 1020.07 1020.08 1020.05 1020.00 1019.83 1019.66 1019.53 1019.33 1019.15
1011.13 1012.36 1013.37 1014.03 1014.53 1015.24 1015.87 1016.26 1016.62 1017.20 1017.76 1018.16 1018.62 1018.99 1019.26 1019.44 1019.65 1019.91 1020.09 1020.24 1020.48 1020.58 1020.72 1020.72 1020.75 1020.74 1020.75 1020.71 1020.50 1020.22 1020.05 1019.87 1019.63
1011.03 1012.38 1013.25 1013.79 1014.47 1015.21 1015.91 1016.38 1016.74 1016.98 1017.66 1018.23 1018.69 1019.18 1019.58 1019.84 1019.93 1020.21 1020.44 1020.59 1020.80 1020.99 1021.23 1021.32 1021.40 1021.44 1021.50 1021.52 1021.34 1021.30 1021.12 1020.81 1020.46
1010.76 1012.01 1012.89 1013.60 1014.37 1015.06 1015.57 1016.09 1016.66 1017.16 1017.74 1018.21 1018.74 1019.24 1019.73 1020.04 1020.26 1020.45 1020.78 1021.26 1021.60 1021.78 1021.97 1021.97 1021.92 1022.11 1022.12 1022.09 1022.07 1022.20 1022.14 1021.93 1021.51
1010.76 1011.87 1012.67 1013.58 1014.32 1014.90 1015.54 1016.14 1016.64 1017.07 1017.58 1018.05 1018.56 1019.22 1019.72 1020.01 1020.25 1020.64 1021.00 1021.40 1021.91 1022.20 1022.36 1022.55 1022.45 1022.16 1022.03 1022.21 1022.46 1022.58 1022.57 1022.31 1021.66
1010.72 1011.87 1012.69 1013.42 1014.05 1014.62 1015.15 1015.66 1016.23 1016.83 1017.22 1017.86 1018.49 1018.88 1019.40 1019.84 1020.26 1020.60 1020.88 1021.27 1021.71 1022.12 1022.36 1022.39 1022.32 1022.16 1021.87 1022.31 1022.32 1022.38 1022.46 1022.17 1021.54
Wind_Speed
7 8 9 12 13 13 12 11 10 11 11 10 8 9 10 8 8 6 6 6 4 4 4 4 2 2 2 3 4 3 3 3 3
8 8 9 12 8 11 10 10 12 14 11 9 9 11 8 7 6 6 5 6 4 4 4 2 3 2 3 4 5 5 5 4 4
8 5 6 7 8 8 8 10 9 8 9 12 10 8 7 7 6 4 4 4 6 6 3 3 4 6 7 6 4 3 4 2 2
6 3 3 5 5 5 5 4 5 4 4 3 2 1 2 1 3 4 4 5 7 6 5 7 8 9 8 6 5 4 4 4 3
4 6 5 5 5 6 6 6 6 5 4 5 4 4 4 4 4 3 4 5 4 3 6 5 5 3 4 5 3 3 2 3 3
6 6 8 8 8 7 7 7 7 6 5 4 4 5 5 5 5 6 5 4 4 5 6 5 5 1 3 3 4 4 3 3 5
8 7 9 10 10 11 10 9 8 7 7 7 7 8 9 8 7 6 6 6 7 7 7 7 6 5 4 4 3 3 5 4 4
11 11 11 11 11 10 9 9 10 9 9 8 8 9 9 7 7 7 8 9 8 8 10 10 9 7 4 4 4 5 6 6 6
12 13 13 12 12 12 11 9 8 8 9 8 8 9 8 7 8 9 10 9 9 10 10 10 10 10 9 9 7 13 9 6 3
14 14 14 13 11 10 9 9 7 9 7 7 8 8 7 8 9 10 9 9 9 10 9 9 11 11 10 10 9 17 17 16 8
14 15 14 12 11 10 10 8 8 8 7 7 8 8 8 9 10 11 8 9 11 9 8 9 10 10 10 11 12 18 18 17 11
11 13 13 11 9 10 9 9 8 9 8 7 8 7 7 7 9 10 10 11 10 7 8 9 9 9 10 10 10 15 16 12 9
12 11 11 13 11 10 11 8 9 10 8 7 7 6 6 5 5 7 9 6 5 5 6 9 8 10 10 13 10 16 15 10 6
12 12 13 12 11 11 11 9 10 10 8 8 6 6 6 6 5 6 6 5 3 4 5 6 6 7 6 7 8 9 11 10 6
15 16 14 11 11 10 8 8 10 9 9 7 6 6 6 6 5 5 5 6 4 4 4 6 5 5 5 5 6 11 11 11 10
16 15 12 10 11 11 7 6 8 9 7 7 7 6 6 5 5 4 3 4 4 4 4 4 4 4 4 5 5 6 13 14 13
16 14 13 11 12 12 9 6 6 8 8 7 8 7 6 4 5 5 4 4 3 4 4 4 4 4 4 4 4 6 7 6 7
15 14 12 12 11 11 10 8 7 8 8 9 7 6 5 5 4 4 5 4 3 3 2 2 3 2 2 4 5 4 5 5 5
15 14 12 11 10 10 9 8 8 8 9 9 9 7 5 4 4 3 4 4 4 4 3 3 3 2 0 2 1 4 6 5 4
15 13 13 12 12 11 10 9 10 9 9 9 8 7 6 4 4 4 4 3 3 4 2 1 0 1 1 3 1 4 5 4 2
Wind_Direction
192 192 192 201 193 192 198 187 179 183 188 203 191 196 210 198 200 207 217 223 231 247 239 240 215 247 242 246 238 231 227 227 208
221 225 185 199 187 187 188 188 190 191 192 197 193 205 206 210 213 214 226 235 239 251 260 286 273 136 117 158 166 172 178 187 196
254 231 198 174 186 180 187 194 192 182 193 201 203 199 201 210 208 214 229 240 248 243 259 230 189 169 171 193 178 190 194 200 175
242 245 229 164 185 174 159 137 157 168 180 182 178 197 46 126 193 201 216 234 243 249 213 214 194 196 194 203 188 186 216 134 181
82 69 100 112 111 98 95 102 104 110 118 132 153 153 155 192 206 222 250 276 295 321 248 242 244 232 282 291 285 286 241 213 243
95 91 86 81 73 74 79 78 74 74 69 102 131 128 111 73 55 57 45 15 355 342 337 323 314 8 336 320 291 300 317 316 294
102 91 89 94 86 83 84 83 79 76 68 64 77 82 84 74 57 56 47 35 29 25 20 24 25 49 60 51 28 344 334 309 269
110 109 102 107 108 102 93 89 83 75 70 68 77 81 75 68 58 48 44 39 30 28 34 33 36 34 29 9 4 1 338 317 290
122 123 119 118 111 106 101 95 88 82 77 70 76 75 69 59 56 58 55 45 37 35 31 30 36 34 37 32 21 354 346 307 300
134 131 128 125 114 108 105 105 99 92 85 75 73 77 73 71 73 68 54 46 43 43 38 37 39 36 36 34 22 28 40 50 48
138 134 134 129 123 113 112 104 95 95 82 77 79 73 73 77 82 80 72 70 66 63 52 46 48 39 30 35 30 31 36 45 48
133 139 136 129 123 121 119 114 111 104 92 88 84 78 78 80 101 98 92 85 79 52 49 54 48 47 37 37 35 31 38 45 48
124 124 129 130 129 122 121 121 117 113 109 103 100 100 95 87 90 105 103 85 62 64 58 69 61 57 49 50 47 43 44 45 41
128 130 132 132 135 138 140 134 126 123 125 125 127 116 107 97 92 96 94 93 88 89 81 88 66 69 50 49 39 37 41 53 48
137 137 140 146 136 136 140 138 131 134 137 142 131 123 115 107 102 102 99 99 85 75 80 75 57 50 40 28 20 29 21 29 49
142 148 153 147 137 137 143 142 139 135 144 133 122 112 116 116 106 96 86 84 77 68 50 53 49 44 34 14 9 22 19 24 29
147 156 155 147 144 145 148 152 144 139 141 134 126 121 123 118 112 103 84 79 73 74 62 61 56 52 46 28 31 28 16 15 19
152 155 152 150 149 151 155 152 144 143 142 143 134 132 133 128 126 121 106 76 59 77 65 44 95 78 62 36 23 13 331 338 13
150 153 147 145 145 149 150 146 145 147 151 151 146 144 149 156 143 131 126 126 108 61 60 35 12 196 78 91 2 331 330 327 315
143 143 147 149 159 154 150 148 152 161 160 153 159 158 161 156 145 150 149 137 133 131 47 151 142 22 29 85 2 327 333 355 326